Date,TemperatureHighF,TemperatureAvgF,TemperatureLowF,DewpointHighF,DewpointAvgF,DewpointLowF,HumidityHigh,HumidityAvg,HumidityLow,PressureMaxIn,PressureMinIn,WindSpeedMaxMPH,WindSpeedAvgMPH,GustSpeedMaxMPH,PrecipitationSumIn
2013-1-1,81,74,67,68,64,59,97,73,57,0.00,40.00,9,5,18,0.00
2013-1-2,82,72,64,72,68,63,99,89,66,0.00,40.00,6,3,14,0.00
2013-1-3,83,72,63,73,69,63,99,90,71,0.00,40.00,8,3,15,0.00
2013-1-4,81,74,66,74,71,66,99,91,77,0.00,40.00,7,4,13,0.01
2013-1-5,81,74,69,72,71,69,99,89,73,0.00,40.00,9,7,17,0.01
2013-1-6,84,76,69,72,71,68,96,85,65,0.00,40.00,9,5,18,0.00
2013-1-7,82,75,65,73,69,64,98,84,64,0.00,40.00,10,4,17,0.00
2013-1-8,83,78,73,73,71,70,94,82,67,0.00,40.00,8,6,19,0.00
2013-1-9,83,79,76,73,71,69,87,78,68,0.00,40.00,9,7,22,0.00
2013-1-10,82,78,75,71,69,68,83,75,63,0.00,40.00,10,8,22,0.00
2013-1-11,83,78,74,70,66,61,83,69,48,0.00,40.00,9,7,20,0.00
2013-1-12,82,77,74,70,68,66,84,75,62,0.00,40.00,9,6,17,0.00
2013-1-13,82,77,74,69,65,59,83,69,58,0.00,40.00,10,7,19,0.00
2013-1-14,82,76,72,67,63,59,74,66,58,0.00,40.00,8,6,16,0.00
2013-1-15,83,76,73,69,66,64,81,72,54,0.00,40.00,7,6,16,0.00
2013-1-16,83,76,70,72,68,65,94,76,60,0.00,40.00,8,4,14,0.01
2013-1-17,82,74,67,70,67,57,95,80,62,0.00,40.00,14,6,29,0.01
2013-1-18,67,64,59,57,54,51,82,71,67,0.00,40.00,11,7,22,0.00
2013-1-19,74,67,52,65,59,50,97,78,63,0.00,40.00,7,3,12,0.00
2013-1-20,77,72,69,69,67,65,95,83,66,0.00,40.00,6,4,10,0.00
2013-1-21,80,72,65,71,66,63,97,81,62,0.00,40.00,8,4,16,0.00
2013-1-22,74,70,67,63,60,57,81,71,61,0.00,40.00,10,8,19,0.00
2013-1-23,75,69,66,59,58,55,76,68,52,0.00,40.00,11,9,20,0.00
2013-1-24,75,69,65,60,58,56,80,69,53,0.00,40.00,10,7,20,0.00
2013-1-25,77,70,67,62,58,57,78,66,53,0.00,40.00,10,8,19,0.00
2013-1-26,77,71,67,66,62,59,84,74,57,0.00,40.00,10,6,18,0.00
2013-1-27,79,73,69,68,67,64,88,82,68,0.00,40.00,11,8,20,0.00
2013-1-28,81,75,72,68,67,65,85,75,62,0.00,40.00,9,7,18,0.00
2013-1-29,83,77,73,69,68,66,83,74,60,0.00,40.00,10,7,20,0.00
2013-1-30,81,76,69,70,66,63,95,74,60,0.00,40.00,12,7,23,0.00
2013-1-31,76,70,66,72,63,58,94,79,73,0.00,40.00,12,9,26,0.01
2013-2-1,74,67,61,61,54,49,77,63,49,0.00,40.00,12,9,22,0.01
2013-2-2,75,69,64,60,57,52,79,67,54,0.00,40.00,11,8,22,0.00
2013-2-3,72,68,64,60,54,45,83,63,46,0.00,40.00,12,8,22,0.00
2013-2-4,74,67,62,59,52,45,79,60,46,0.00,40.00,8,6,17,0.00
2013-2-5,79,70,64,66,62,58,94,79,61,0.00,40.00,7,4,11,0.00
2013-2-6,78,72,60,69,66,59,98,84,70,0.00,40.00,6,4,12,0.00
2013-2-7,81,74,65,67,65,61,96,75,50,0.00,40.00,10,5,18,0.00
2013-2-8,84,75,63,73,69,62,98,84,60,0.00,40.00,8,4,15,0.00
2013-2-9,81,73,68,70,66,61,93,78,67,0.00,40.00,9,6,17,0.00
2013-2-10,81,76,72,66,65,63,79,69,57,0.00,40.00,9,8,21,0.00
2013-2-11,83,76,72,69,67,65,89,75,59,0.00,40.00,9,7,19,0.01
2013-2-12,83,77,72,71,69,67,90,77,61,0.00,40.00,11,7,19,0.01
2013-2-13,84,76,71,73,71,69,98,85,63,0.00,40.00,10,5,17,0.00
2013-2-14,83,77,68,73,71,64,95,84,70,0.00,40.00,16,7,28,0.54
2013-2-15,75,69,66,69,67,64,95,91,81,0.00,40.00,11,6,22,0.66
2013-2-16,74,69,64,69,61,48,96,76,59,0.00,40.00,14,9,28,0.46
2013-2-17,64,58,54,49,40,33,65,50,39,0.00,40.00,13,10,27,0.02
2013-2-18,73,62,55,58,48,31,79,60,39,0.00,40.00,10,8,21,0.00
2013-2-19,77,69,63,68,63,55,96,83,67,0.00,40.00,8,4,16,1.14
2013-2-20,78,70,60,69,66,59,98,88,73,0.00,40.00,7,4,14,1.12
2013-2-21,82,74,70,70,68,64,95,81,56,0.00,40.00,11,6,17,0.00
2013-2-22,84,76,68,71,70,67,96,83,65,0.00,40.00,10,6,20,0.00
2013-2-23,84,78,74,73,71,70,95,81,67,0.00,40.00,12,6,21,0.00
2013-2-24,87,76,68,76,70,67,98,84,54,0.00,40.00,6,3,12,0.00
2013-2-25,84,78,73,74,72,70,97,83,65,0.00,40.00,11,6,18,0.00
2013-2-26,85,79,75,74,72,70,93,81,66,0.00,40.00,12,8,24,0.00
2013-2-27,80,75,71,74,70,67,93,86,73,0.00,40.00,8,5,15,0.02
2013-2-28,74,70,64,67,58,44,88,66,42,0.00,40.00,9,6,17,0.01
2013-3-1,73,61,61,62,45,-100,91,69,61,0.00,40.00,9,5,19,0.02
2013-3-2,68,61,59,55,45,-100,80,61,52,0.00,40.00,11,8,22,0.01
2013-3-3,65,59,53,54,50,43,91,72,52,0.00,40.00,10,6,21,0.29
2013-3-4,65,55,46,48,39,-100,95,63,54,0.00,40.00,8,5,21,0.16
2013-3-5,76,66,46,58,55,45,96,70,48,0.00,40.00,8,4,17,0.00
2013-3-6,80,66,52,64,56,48,97,71,49,0.00,40.00,11,7,22,0.00
2013-3-7,64,61,57,50,45,41,74,56,44,0.00,40.00,11,7,21,0.00
2013-3-8,74,68,59,61,54,51,90,64,50,0.00,40.00,7,5,13,0.00
2013-3-9,77,68,64,62,51,-100,89,63,49,0.00,40.00,10,7,20,0.00
2013-3-10,78,73,67,61,58,55,74,61,49,0.00,40.00,9,7,18,0.00
2013-3-11,81,71,68,64,54,-100,82,61,51,0.00,40.00,9,6,19,0.00
2013-3-12,81,76,69,68,66,64,92,72,58,0.00,40.00,12,8,23,0.00
2013-3-13,73,69,66,65,56,49,91,65,42,0.00,40.00,12,9,25,0.00
2013-3-14,71,66,62,57,46,41,71,50,36,0.00,40.00,13,9,24,0.00
2013-3-15,73,62,61,57,36,-100,79,45,35,0.00,40.00,11,6,22,0.00
2013-3-16,75,67,64,59,47,-100,76,57,47,0.00,40.00,8,6,14,0.00
2013-3-17,80,75,67,65,61,57,84,63,48,0.00,40.00,8,6,18,0.00
2013-3-18,82,72,69,69,60,-100,91,74,63,0.00,40.00,15,7,28,0.00
2013-3-19,76,72,68,72,67,64,95,84,70,0.00,40.00,7,5,15,1.31
2013-3-20,82,71,60,68,65,59,98,82,49,0.00,40.00,10,4,21,0.00
2013-3-21,77,70,62,65,62,56,97,77,58,0.00,40.00,7,4,21,0.00
2013-3-22,84,75,64,72,66,59,94,77,63,0.00,40.00,10,5,17,0.00
2013-3-23,86,78,72,74,71,65,96,80,50,0.00,40.00,12,6,20,0.00
2013-3-24,87,80,75,74,73,69,94,81,56,0.00,40.00,18,9,31,0.00
2013-3-25,77,73,67,74,66,52,94,80,62,0.00,40.00,13,8,23,0.37
2013-3-26,70,65,59,52,45,38,66,50,34,0.00,40.00,15,12,29,0.01
2013-3-27,65,60,54,46,41,36,68,52,34,0.00,40.00,12,10,22,0.00
2013-3-28,73,67,58,55,50,44,85,56,36,0.00,40.00,9,5,16,0.00
2013-3-29,76,68,55,58,54,50,92,61,44,0.00,40.00,9,7,17,0.00
2013-3-30,78,71,66,61,58,55,81,64,45,0.00,40.00,10,7,18,0.00
2013-3-31,81,74,66,68,61,-100,90,70,51,0.00,40.00,10,6,21,0.00
2013-4-1,85,76,68,71,70,67,95,82,62,0.00,40.00,8,5,16,0.00
2013-4-2,82,74,66,70,67,63,97,80,53,0.00,40.00,6,4,11,0.00
2013-4-3,84,77,72,71,69,66,88,76,62,0.00,40.00,11,7,20,0.00
2013-4-4,85,79,75,73,72,69,90,79,60,0.00,40.00,13,7,22,0.00
2013-4-5,77,71,66,74,67,60,95,87,77,0.00,40.00,12,7,25,1.59
2013-4-6,74,68,65,64,59,55,87,71,59,0.00,40.00,10,8,22,0.02
2013-4-7,81,75,69,68,66,63,92,73,60,0.00,40.00,10,8,21,0.07
2013-4-8,83,78,74,70,67,64,80,71,62,0.00,40.00,9,7,17,0.03
2013-4-9,85,78,73,71,69,66,87,74,62,0.00,40.00,11,7,21,0.00
2013-4-10,83,79,75,73,72,70,91,80,72,0.00,40.00,10,8,23,0.12
2013-4-11,85,80,77,75,73,71,89,80,68,0.00,40.00,12,9,24,0.02
2013-4-12,88,81,75,76,74,72,96,81,61,0.00,40.00,11,7,20,0.01
2013-4-13,90,81,75,76,74,71,94,80,59,0.00,40.00,10,5,18,0.07
2013-4-14,87,81,76,75,73,71,90,76,62,0.00,40.00,10,6,20,0.00
2013-4-15,89,82,74,77,74,69,95,76,52,0.00,40.00,8,4,15,0.00
2013-4-16,88,83,79,75,74,69,87,74,62,0.00,40.00,9,6,16,0.00
2013-4-17,88,82,79,72,71,70,79,70,59,0.00,40.00,9,7,20,0.00
2013-4-18,88,82,77,72,71,70,84,71,57,0.00,40.00,10,8,20,0.00
2013-4-19,87,82,78,74,72,70,81,71,61,0.00,40.00,10,8,21,0.00
2013-4-20,90,81,75,76,73,68,95,78,57,0.00,40.00,7,4,24,0.19
2013-4-21,87,80,72,74,71,69,92,75,58,0.00,40.00,9,5,16,0.02
2013-4-22,86,77,70,75,71,67,95,82,55,0.00,40.00,14,4,27,2.27
2013-4-23,86,79,74,72,68,65,87,70,49,0.00,40.00,13,8,24,0.18
2013-4-24,85,79,75,68,66,63,72,63,54,0.00,40.00,13,9,25,0.00
2013-4-25,84,79,75,65,63,61,67,58,46,0.00,40.00,10,7,19,0.00
2013-4-26,83,78,74,65,62,61,67,59,48,0.00,40.00,11,8,21,0.00
2013-4-27,83,78,74,68,64,61,73,62,52,0.00,40.00,9,2,18,0.00
2013-4-28,85,79,74,71,66,-100,90,69,56,0.00,40.00,0,0,0,0.11
2013-4-29,84,78,74,73,70,67,90,77,63,0.00,40.00,0,0,0,0.30
2013-4-30,86,80,74,73,71,68,92,75,60,0.00,40.00,0,0,0,0.26
2013-5-1,84,78,76,74,72,70,88,80,72,0.00,40.00,0,0,0,0.06
2013-5-2,81,74,67,73,70,65,95,87,74,0.00,40.00,0,0,0,2.76
2013-5-3,85,75,64,74,68,63,97,81,59,0.00,40.00,0,0,0,0.02
2013-5-4,83,78,73,69,67,60,82,70,60,0.00,40.00,0,0,0,0.00
2013-5-5,79,74,71,63,59,56,70,59,50,0.00,40.00,0,0,0,0.00
2013-5-6,82,75,66,63,60,57,88,61,42,0.00,40.00,0,0,0,0.00
2013-5-7,84,74,64,67,64,62,95,73,51,0.00,40.00,0,0,0,0.00
2013-5-8,82,74,62,68,65,60,95,74,56,0.00,40.00,0,0,0,0.00
2013-5-9,86,79,74,73,69,64,81,70,59,0.00,40.00,0,0,0,0.00
2013-5-10,89,80,74,75,69,-100,95,76,53,0.00,40.00,0,0,0,0.05
2013-5-11,88,82,76,74,73,71,92,75,59,0.00,40.00,0,0,0,0.03
2013-5-12,88,81,77,74,70,-100,90,73,55,0.00,40.00,5,1,11,0.00
2013-5-13,88,81,74,74,72,68,90,74,61,0.00,40.00,9,5,17,0.00
2013-5-14,84,80,77,71,67,61,80,66,54,0.00,40.00,12,9,22,0.00
2013-5-15,83,78,75,67,63,61,68,60,51,0.00,40.00,13,7,23,0.00
2013-5-16,85,75,75,66,46,-100,69,61,52,0.00,40.00,10,7,19,0.00
2013-5-17,86,80,69,74,66,-100,92,73,63,0.00,40.00,7,4,13,0.00
2013-5-18,88,81,73,74,72,71,93,75,60,0.00,40.00,7,4,16,0.00
2013-5-19,88,82,76,72,71,68,81,69,57,0.00,40.00,8,5,16,0.00
2013-5-20,88,81,76,74,71,68,84,73,61,0.00,40.00,11,6,26,0.00
2013-5-21,86,81,77,76,73,70,85,77,65,0.00,40.00,7,5,15,0.18
2013-5-22,90,82,73,75,73,71,95,77,60,0.00,40.00,8,4,15,0.08
2013-5-23,89,82,72,75,73,70,92,75,61,0.00,40.00,8,4,15,0.00
2013-5-24,89,80,71,75,71,69,95,75,56,0.00,40.00,7,4,13,0.00
2013-5-25,90,80,69,74,70,67,94,72,53,0.00,40.00,12,6,22,0.04
2013-5-26,88,82,78,68,66,61,68,58,41,0.00,40.00,12,9,23,0.04
2013-5-27,83,78,74,74,71,66,90,78,65,0.00,40.00,14,8,25,0.31
2013-5-28,86,78,74,75,72,70,91,83,71,0.00,40.00,11,7,24,0.82
2013-5-29,79,76,72,74,72,70,96,88,76,0.00,40.00,8,5,20,1.72
2013-5-30,86,79,74,76,74,72,94,83,69,0.00,40.00,8,3,14,0.01
2013-5-31,87,80,74,76,74,70,91,80,68,0.00,40.00,7,5,15,0.01
2013-6-1,89,81,75,77,75,73,94,81,65,0.00,40.00,13,4,25,0.00
2013-6-2,86,78,74,75,72,-100,95,86,67,0.00,40.00,9,4,21,0.44
2013-6-3,83,78,72,76,74,70,94,88,78,0.00,40.00,14,5,23,1.26
2013-6-4,84,79,72,77,75,70,95,88,77,0.00,40.00,10,6,21,0.53
2013-6-5,85,81,77,79,76,74,90,85,81,0.00,40.00,10,7,27,0.21
2013-6-6,87,80,74,78,76,71,93,86,73,0.00,40.00,16,9,27,0.63
2013-6-7,88,80,76,78,75,72,94,85,66,0.00,40.00,11,6,19,0.43
2013-6-8,90,83,78,78,76,74,91,79,64,0.00,40.00,8,6,17,0.22
2013-6-9,89,83,76,78,74,72,88,75,63,0.00,40.00,8,7,20,0.23
2013-6-10,89,84,79,77,75,74,88,74,65,0.00,40.00,8,6,18,0.06
2013-6-11,89,84,80,78,76,73,89,76,63,0.00,40.00,7,4,14,0.02
2013-6-12,89,81,74,78,75,70,94,82,63,0.00,40.00,11,4,20,0.76
2013-6-13,91,81,72,75,73,70,95,77,52,0.00,40.00,6,3,12,0.12
2013-6-14,90,81,71,77,74,69,94,79,58,0.00,40.00,6,3,12,0.49
2013-6-15,90,83,75,76,74,72,95,75,59,0.00,40.00,6,4,10,0.17
2013-6-16,91,83,74,76,74,72,93,74,57,0.00,40.00,8,5,15,0.00
2013-6-17,91,85,81,76,75,73,82,73,62,0.00,40.00,7,6,15,0.00
2013-6-18,90,84,81,77,76,73,85,76,66,0.00,40.00,8,5,16,0.00
2013-6-19,90,84,76,78,75,73,95,77,62,0.00,40.00,8,4,14,0.42
2013-6-20,91,85,81,76,74,72,79,69,58,0.00,40.00,7,6,13,0.42
2013-6-22,91,88,83,74,73,72,73,62,56,0.00,40.00,7,6,13,0.00
2013-6-23,90,85,82,75,74,72,78,69,57,0.00,40.00,8,6,21,0.00
2013-6-24,90,84,80,75,73,71,84,69,55,0.00,40.00,8,6,24,0.23
2013-6-25,90,84,78,76,74,72,84,72,61,0.00,40.00,9,6,16,0.07
2013-6-26,88,83,78,77,74,72,89,75,67,0.00,40.00,8,5,16,0.10
2013-6-27,91,83,77,76,74,72,90,76,61,0.00,40.00,7,4,14,1.23
2013-6-28,89,82,77,76,75,73,93,79,62,0.00,40.00,5,3,10,0.08
2013-6-29,89,83,75,77,74,72,94,75,59,0.00,40.00,8,5,15,0.03
2013-6-30,88,83,78,75,74,72,86,74,61,0.00,40.00,14,10,27,0.01
2013-7-1,84,81,75,76,73,71,89,78,70,0.00,40.00,13,6,23,0.21
2013-7-2,89,81,74,77,75,72,95,83,66,0.00,40.00,9,4,23,3.13
2013-7-3,86,80,75,77,74,68,90,81,69,0.00,40.00,11,6,23,0.72
2013-7-4,89,84,79,76,74,72,85,74,65,0.00,40.00,9,7,22,0.17
2013-7-5,85,78,74,77,74,70,94,87,74,0.00,40.00,11,5,28,1.38
2013-7-6,88,82,79,77,75,72,88,80,69,0.00,40.00,8,6,19,0.62
2013-7-7,88,83,79,76,74,72,83,74,61,0.00,40.00,12,7,28,0.20
2013-7-8,89,82,79,75,70,-100,85,71,57,0.00,40.00,10,6,23,0.02
2013-7-9,88,82,79,76,72,70,86,73,59,0.00,40.00,7,5,14,0.04
2013-7-10,87,81,76,76,73,71,87,78,65,0.00,40.00,6,3,11,0.20
2013-7-11,90,81,74,78,74,72,94,80,61,0.00,40.00,6,3,11,0.07
2013-7-12,89,80,73,75,73,71,95,79,60,0.00,40.00,6,3,15,0.06
2013-7-13,88,81,74,75,73,70,93,76,62,0.00,40.00,12,8,23,0.45
2013-7-14,88,81,76,77,74,71,90,79,69,0.00,40.00,10,6,19,0.46
2013-7-15,86,81,78,73,71,69,81,73,63,0.00,40.00,10,7,21,0.02
2013-7-16,86,82,79,75,73,71,86,74,69,0.00,40.00,12,9,24,0.19
2013-7-17,83,77,73,74,72,71,94,86,68,0.00,40.00,10,6,18,1.04
2013-7-18,82,77,74,75,73,70,93,88,80,0.00,40.00,8,5,25,0.47
2013-7-19,89,82,77,77,76,74,92,82,69,0.00,40.00,7,5,14,0.02
2013-7-20,89,84,79,78,76,74,91,78,65,0.00,40.00,10,5,17,0.00
2013-7-21,89,84,78,78,76,73,92,77,67,0.00,40.00,6,5,14,0.00
2013-7-22,90,84,79,75,74,73,84,72,59,0.00,40.00,7,5,13,0.00
2013-7-23,91,84,76,76,74,71,89,73,54,0.00,40.00,5,4,12,0.00
2013-7-24,92,85,73,76,73,70,94,69,54,0.00,40.00,6,4,11,0.00
2013-7-25,91,83,73,75,72,71,93,72,54,0.00,40.00,7,4,15,0.00
2013-7-26,92,84,78,74,73,71,87,70,55,0.00,40.00,7,4,13,0.00
2013-7-27,92,86,79,75,73,71,83,67,53,0.00,40.00,6,4,12,0.00
2013-7-28,92,83,73,75,72,68,93,71,48,0.00,40.00,5,3,13,0.00
2013-7-29,92,85,77,76,74,72,88,70,57,0.00,40.00,7,4,14,0.00
2013-7-30,90,84,80,78,75,72,89,75,61,0.00,40.00,11,5,22,0.24
2013-7-31,91,86,82,76,74,73,83,69,57,0.00,40.00,9,7,18,0.02
2013-8-1,91,86,82,75,73,71,78,66,52,0.00,40.00,8,5,15,0.00
2013-8-2,92,83,75,76,74,71,93,76,56,0.00,40.00,9,3,22,0.23
2013-8-3,92,85,78,76,75,73,91,72,56,0.00,40.00,8,4,13,0.20
2013-8-4,91,85,75,79,74,72,94,72,60,0.00,40.00,5,3,9,0.00
2013-8-5,92,85,75,76,73,70,94,70,49,0.00,40.00,7,4,11,0.00
2013-8-6,89,82,75,78,76,72,93,83,66,0.00,40.00,6,3,14,1.25
2013-8-7,89,83,76,76,75,72,94,78,63,0.00,40.00,7,4,15,0.01
2013-8-8,91,85,80,75,73,70,79,68,59,0.00,40.00,9,7,20,0.00
2013-8-9,90,84,77,74,72,68,85,68,53,0.00,40.00,9,6,24,0.00
2013-8-10,89,85,81,76,75,73,85,72,63,0.00,40.00,9,7,31,0.18
2013-8-11,91,86,83,77,75,74,78,71,61,0.00,40.00,10,8,19,0.06
2013-8-12,90,85,81,75,74,72,83,70,58,0.00,40.00,9,8,17,0.03
2013-8-13,91,86,81,75,74,72,78,69,57,0.00,40.00,8,6,16,0.03
2013-8-14,90,83,80,77,71,-100,77,70,59,0.00,40.00,7,5,16,0.01
2013-8-15,88,73,74,76,55,-100,92,74,65,0.00,40.00,6,4,24,0.60
2013-8-16,92,84,77,79,74,-100,89,75,64,0.00,40.00,8,5,18,0.01
2013-8-17,91,86,82,78,75,73,81,71,61,0.00,40.00,8,6,16,0.00
2013-8-18,91,85,83,77,73,-100,80,70,62,0.00,40.00,8,6,21,0.00
2013-8-19,90,81,82,78,62,-100,81,71,60,0.00,40.00,8,6,19,0.03
2013-8-20,86,82,78,76,72,-100,85,75,68,0.00,40.00,9,6,24,0.20
2013-8-21,90,84,78,77,76,72,89,75,62,0.00,40.00,9,6,22,0.20
2013-8-22,91,84,80,78,76,73,86,77,65,0.00,40.00,8,7,19,0.18
2013-8-23,91,85,81,76,75,74,83,72,60,0.00,40.00,7,5,14,0.11
2013-8-24,91,85,77,77,74,72,90,72,57,0.00,40.00,8,4,13,0.04
2013-8-25,90,84,78,76,72,-100,89,71,63,0.00,40.00,10,5,16,0.00
2013-8-26,86,81,75,76,73,70,91,77,64,0.00,40.00,8,5,22,0.21
2013-8-27,82,79,74,73,72,70,92,78,71,0.00,40.00,8,5,17,0.02
2013-8-28,88,83,76,74,72,71,87,72,60,0.00,40.00,8,4,13,0.17
2013-8-29,90,82,73,76,72,71,93,75,54,0.00,40.00,5,3,9,0.01
2013-8-30,90,81,74,76,73,72,93,78,56,0.00,40.00,5,3,10,0.00
2013-8-31,88,83,72,76,74,70,93,74,65,0.00,40.00,6,4,13,0.00
2013-9-1,91,83,76,78,72,-100,94,74,58,0.00,40.00,8,3,17,0.29
2013-9-2,90,84,77,78,75,71,92,75,57,0.00,40.00,8,4,16,0.00
2013-9-3,90,83,77,77,74,70,90,75,60,0.00,40.00,6,4,15,0.00
2013-9-4,90,85,81,77,76,74,86,75,61,0.00,40.00,8,5,17,0.26
2013-9-5,92,86,80,77,75,74,84,70,59,0.00,40.00,8,7,17,0.03
2013-9-6,92,86,81,77,75,74,85,71,57,0.00,40.00,8,6,17,0.02
2013-9-7,88,83,79,75,73,68,83,71,56,0.00,40.00,8,6,19,0.03
2013-9-8,89,82,78,75,70,-100,83,71,55,0.00,40.00,7,5,12,0.03
2013-9-9,90,83,78,75,74,72,87,73,60,0.00,40.00,7,5,18,0.49
2013-9-10,90,84,78,76,74,72,84,72,59,0.00,40.00,9,6,22,0.20
2013-9-11,89,83,78,77,74,73,88,75,61,0.00,40.00,12,6,25,0.15
2013-9-12,88,83,77,76,75,73,92,77,66,0.00,40.00,7,4,13,0.01
2013-9-13,90,83,73,76,74,70,93,74,58,0.00,40.00,6,3,10,0.01
2013-9-14,90,83,74,77,74,71,91,74,59,0.00,40.00,9,4,17,0.01
2013-9-15,85,79,73,76,71,-100,93,82,73,0.00,40.00,8,5,31,1.60
2013-9-16,82,80,75,77,74,71,89,82,76,0.00,40.00,12,7,28,0.55
2013-9-17,84,80,74,76,74,69,92,83,70,0.00,40.00,9,6,17,0.37
2013-9-18,81,80,79,77,76,74,91,87,81,0.00,40.00,9,3,17,0.33
2013-9-19,89,82,75,77,74,72,92,78,60,0.00,40.00,9,5,17,0.65
2013-9-20,88,82,78,75,72,67,87,73,57,0.00,40.00,8,6,15,0.65
2013-9-21,88,82,76,75,73,68,90,75,62,0.00,40.00,7,4,15,0.54
2013-9-22,90,83,74,75,71,-100,93,71,59,0.00,40.00,9,5,15,0.06
2013-9-23,90,84,76,78,76,73,93,78,66,0.00,40.00,10,6,27,1.03
2013-9-24,91,84,79,78,77,75,94,80,60,0.00,40.00,8,4,16,1.03
2013-9-25,92,84,77,78,76,74,93,77,59,0.00,40.00,8,4,15,0.00
2013-9-26,91,85,81,77,76,74,83,73,62,0.00,40.00,9,6,17,0.00
2013-9-27,89,84,79,78,73,68,85,71,52,0.00,40.00,8,5,22,0.16
2013-9-28,89,81,72,77,72,68,93,77,60,0.00,40.00,7,3,13,0.36
2013-9-29,89,81,74,74,69,-100,91,71,56,0.00,40.00,9,5,15,0.19
2013-9-30,90,84,79,75,72,70,82,69,56,0.00,40.00,8,5,16,0.00
2013-10-1,83,82,78,75,74,73,88,78,73,0.00,40.00,9,7,20,1.31
2013-10-2,88,82,76,76,74,73,94,79,64,0.00,40.00,7,4,18,2.38
2013-10-3,89,84,81,76,75,74,81,74,63,0.00,40.00,9,6,17,0.00
2013-10-4,88,83,80,75,74,72,85,72,63,0.00,40.00,8,6,14,0.11
2013-10-5,88,83,80,73,72,69,78,68,60,0.00,40.00,7,6,13,0.11
2013-10-6,90,82,75,73,71,68,91,70,53,0.00,40.00,5,3,10,0.00
2013-10-7,90,83,73,75,73,71,93,73,57,0.00,40.00,7,5,17,0.00
2013-10-8,89,82,77,76,74,72,90,78,65,0.00,40.00,7,4,16,0.20
2013-10-9,88,80,74,72,70,64,91,74,45,0.00,40.00,5,3,9,0.14
2013-10-10,88,82,75,75,73,70,92,76,60,0.00,40.00,9,5,18,0.05
2013-10-11,87,82,78,73,70,67,85,68,55,0.00,40.00,9,7,17,0.13
2013-10-12,87,82,79,68,66,64,68,59,47,0.00,40.00,8,6,16,0.00
2013-10-13,87,81,79,68,65,-100,67,59,50,0.00,40.00,8,6,16,0.00
2013-10-14,86,81,78,69,66,65,70,60,50,0.00,40.00,8,6,15,0.00
2013-10-15,86,80,74,72,68,65,89,67,59,0.00,40.00,8,5,15,0.00
2013-10-16,87,80,74,73,70,68,91,72,53,0.00,40.00,7,4,14,0.07
2013-10-17,87,81,74,73,71,69,88,73,61,0.00,40.00,7,4,14,0.00
2013-10-18,87,82,79,74,72,71,78,72,66,0.00,40.00,8,6,16,0.00
2013-10-19,89,82,74,76,73,71,91,77,62,0.00,40.00,8,4,16,0.01
2013-10-20,90,79,74,76,72,-100,93,82,61,0.00,40.00,7,3,14,0.91
2013-10-21,90,81,75,77,74,73,94,80,60,0.00,40.00,8,3,13,0.37
2013-10-22,90,82,76,75,74,72,92,78,60,0.00,40.00,7,4,14,0.00
2013-10-23,90,82,76,76,74,72,92,78,59,0.00,40.00,8,4,16,0.00
2013-10-24,84,79,77,72,69,67,86,71,60,0.00,40.00,13,9,23,0.05
2013-10-25,83,78,76,67,65,62,69,64,58,0.00,40.00,14,10,25,0.01
2013-10-26,83,78,75,66,65,64,74,66,55,0.00,40.00,12,10,22,0.00
2013-10-27,82,77,75,66,62,-100,71,63,56,0.00,40.00,10,9,19,0.00
2013-10-28,84,78,75,69,65,-100,81,69,53,0.00,40.00,10,8,18,0.00
2013-10-29,84,79,75,70,68,66,78,70,57,0.00,40.00,10,9,20,0.00
2013-10-30,84,80,76,70,67,65,78,67,56,0.00,40.00,12,9,20,0.00
2013-10-31,86,80,77,71,70,68,81,71,60,0.00,40.00,7,5,15,0.00
2013-11-1,87,80,71,72,70,67,91,73,55,0.00,40.00,5,3,8,0.00
2013-11-2,88,82,69,72,70,66,93,69,48,0.00,40.00,7,4,14,0.00
2013-11-3,81,76,73,70,61,-100,81,62,55,0.00,40.00,11,9,22,0.00
2013-11-4,83,77,72,69,65,61,89,68,49,0.00,40.00,15,10,28,0.12
2013-11-5,80,77,75,73,70,67,87,78,71,0.00,40.00,16,12,31,0.15
2013-11-6,83,79,77,73,71,69,83,77,70,0.00,40.00,10,9,21,0.03
2013-11-7,84,79,75,71,70,64,84,75,57,0.00,40.00,7,6,14,0.00
2013-11-8,84,78,75,72,69,65,85,72,67,0.00,40.00,12,8,20,0.00
2013-11-9,85,78,75,74,70,-100,88,78,66,0.00,40.00,11,9,21,0.00
2013-11-10,83,78,75,74,73,69,89,83,70,0.00,40.00,13,9,22,0.14
2013-11-11,84,79,77,73,71,70,82,78,68,0.00,40.00,11,10,22,0.03
2013-11-12,85,79,76,72,71,70,84,76,65,0.00,40.00,8,6,15,0.00
2013-11-13,79,76,72,70,65,63,79,70,60,0.00,40.00,18,11,36,0.00
2013-11-14,78,75,73,65,63,61,73,67,60,0.00,40.00,15,13,31,0.00
2013-11-15,81,76,73,72,69,65,91,79,70,0.00,40.00,12,8,22,0.72
2013-11-16,85,78,75,72,69,-100,90,77,65,0.00,40.00,10,7,18,0.70
2013-11-17,85,80,76,72,71,70,86,76,62,0.00,40.00,8,5,13,0.00
2013-11-18,85,79,76,73,72,70,89,79,63,0.00,40.00,6,4,11,0.00
2013-11-19,84,77,73,72,70,68,90,79,58,0.00,40.00,6,3,10,0.00
2013-11-20,85,78,71,73,70,67,91,77,55,0.00,40.00,5,3,11,0.00
2013-11-21,85,80,76,73,69,65,80,70,58,0.00,40.00,7,5,14,0.00
2013-11-22,81,77,75,75,72,69,91,83,75,0.00,40.00,9,6,19,0.95
2013-11-23,84,77,76,74,69,-100,88,78,64,0.00,40.00,10,7,19,0.26
2013-11-24,80,76,74,73,70,67,89,81,65,0.00,40.00,13,8,25,0.05
2013-11-25,79,75,72,72,69,67,96,83,72,0.00,40.00,15,13,30,0.36
2013-11-26,85,80,76,76,73,69,92,81,71,0.00,40.00,10,7,20,0.32
2013-11-27,80,74,69,74,66,58,100,78,57,0.00,40.00,11,8,23,1.40
2013-11-28,71,65,58,61,57,52,83,76,67,0.00,40.00,12,9,22,0.05
2013-11-29,77,71,67,65,63,61,85,75,65,0.00,40.00,11,9,20,0.00
2013-11-30,78,71,67,69,64,-100,89,80,72,0.00,40.00,10,8,21,0.00
2013-12-1,79,73,69,69,67,65,96,83,70,0.00,40.00,8,6,15,0.00
2013-12-2,78,71,62,68,64,61,100,81,61,0.00,40.00,9,4,14,0.00
2013-12-3,83,74,62,69,65,61,100,76,54,0.00,40.00,7,4,14,0.00
2013-12-4,84,77,68,72,69,65,98,79,61,0.00,40.00,7,4,14,0.00
2013-12-5,83,77,72,72,71,69,92,81,65,0.00,40.00,7,4,13,0.00
2013-12-6,86,79,74,73,71,67,88,77,65,0.00,40.00,8,6,18,0.00
2013-12-7,83,76,74,74,69,-100,93,80,70,0.00,40.00,9,6,16,0.00
2013-12-8,84,78,73,73,71,69,97,80,65,0.00,40.00,8,6,18,0.19
2013-12-9,84,79,76,73,71,68,86,76,58,0.00,40.00,8,6,18,0.14
2013-12-10,83,78,74,74,73,71,93,84,72,0.00,40.00,7,5,12,0.02
2013-12-11,81,77,74,76,74,71,98,90,80,0.00,40.00,8,6,18,0.65
2013-12-12,82,76,70,76,72,62,97,86,77,0.00,40.00,12,7,24,0.21
2013-12-13,81,75,71,73,68,63,93,80,71,0.00,40.00,12,10,23,0.01
2013-12-14,85,78,75,74,70,-100,90,79,66,0.00,40.00,9,6,20,0.01
2013-12-15,85,78,73,75,74,72,96,87,70,0.00,40.00,7,5,14,0.00
2013-12-16,75,72,69,72,66,63,92,82,70,0.00,40.00,10,8,19,0.00
2013-12-17,78,72,68,68,66,63,91,81,71,0.00,40.00,8,6,16,0.00
2013-12-18,77,72,69,65,61,57,79,67,54,0.00,40.00,10,9,20,0.00
2013-12-19,79,72,68,68,64,61,87,78,63,0.00,40.00,10,8,17,0.00
2013-12-20,83,77,72,73,72,69,92,84,72,0.00,40.00,7,6,17,0.00
2013-12-21,84,78,75,74,69,-100,91,79,70,0.00,40.00,10,7,20,0.00
2013-12-22,84,79,77,74,72,71,92,80,68,0.00,40.00,9,6,18,0.00
2013-12-23,85,79,74,75,74,72,93,84,71,0.00,40.00,8,6,16,0.00
2013-12-24,83,75,67,76,70,65,100,85,70,0.00,40.00,11,7,20,0.00
2013-12-25,79,73,69,70,68,64,92,85,72,0.00,40.00,12,9,23,0.00
2013-12-26,79,75,72,72,71,70,95,88,79,0.00,40.00,10,8,20,0.02
2013-12-27,79,76,73,74,72,71,94,90,83,0.00,40.00,9,7,17,0.00
2013-12-28,84,77,74,74,70,-100,95,83,72,0.00,40.00,8,6,16,0.00
2013-12-29,79,76,69,75,73,69,100,91,84,0.00,40.00,8,5,17,0.11
2013-12-30,78,74,70,74,71,69,100,92,75,0.00,40.00,8,4,15,0.09
2013-12-31,80,74,71,72,70,67,93,86,74,0.00,40.00,12,9,25,0.03
2014-1-1,85,78,74,74,72,69,94,82,68,0.00,40.00,12,7,22,0.00
2014-1-2,84,78,68,71,70,67,96,77,65,0.00,40.00,9,6,17,0.00